Houma, LA

7:12 AM CDT on October 23, 2017 (GMT -0500)
Houma-terrebonne

Weather History for KHUM - August, 2014

Change the Weather History Date:

Friday, August 8, 2014

  Actual Average Record
Temperature  
Mean Temperature 83 °F -  
Max Temperature 93 °F 90 °F 98 °F (1962)
Min Temperature 73 °F 72 °F 66 °F (1990)
Cooling Degree Days 18    
Growing Degree Days 33 (Base 50)    
Moisture  
Dew Point 72 °F    
Average Humidity 77    
Maximum Humidity 94    
Minimum Humidity 41    
Precipitation  
Precipitation 0.00 in - - ()
Sea Level Pressure  
Sea Level Pressure 29.98 in    
Wind  
Wind Speed 1 mph (SW)    
Max Wind Speed 9 mph    
Max Gust Speed -    
Visibility 7 miles    
Events Fog    
Averages and records for this station are not official NWS values.
T = Trace of Precipitation, MM = Missing Value Source: NWS Daily Summary

Daily Weather History Graph

Daily Weather History Graph

Search for Another Location

Airport or City:

Trip Planner

Search our weather history database for the weather conditions in past years. The results will help you decide how hot, cold, wet, or windy it might be!

Date:

Astronomy

Aug. 08, 2014 Rise Set
Actual Time 6:26 AM CDT 7:49 PM CDT
Civil Twilight 6:01 AM CDT 8:14 PM CDT
Nautical Twilight 5:30 AM CDT 8:45 PM CDT
Astronomical Twilight 4:59 AM CDT 9:16 PM CDT
Moon 5:59 PM CDT (8/8) 4:02 AM CDT (8/8)
Length of Visible Light 14h 13m
Length of Day
13h 22m
Waxing Gibbous, 94% of the Moon is Illuminated
Aug 8
Waxing Gibbous
Aug 10
Full
Aug 17
Last Quarter
Aug 25
New
Sep 2
First Quarter

Hourly Weather History & Observations

Time (CDT) Temp. Heat Index Dew Point Humidity Pressure Visibility Wind Dir Wind Speed Gust Speed Precip Events Conditions
12:15 AM 76.1 °F - 72.3 °F 88% 29.95 in 7.0 mi Calm Calm - N/A   Clear
12:35 AM 76.3 °F - 73.0 °F 90% 29.96 in 7.0 mi Calm Calm - N/A   Clear
12:55 AM 75.6 °F - 72.3 °F 90% 29.96 in 7.0 mi Calm Calm - N/A   Clear
1:15 AM 76.1 °F - 72.7 °F 89% 29.96 in 7.0 mi Calm Calm - N/A   Clear
1:35 AM 74.5 °F - 70.7 °F 88% 29.96 in 7.0 mi Calm Calm - N/A   Clear
1:55 AM 77.2 °F - 73.9 °F 90% 29.96 in 7.0 mi Calm Calm - N/A   Clear
2:15 AM 77.9 °F - 73.8 °F 87% 29.96 in 10.0 mi Calm Calm - N/A   Clear
2:35 AM 77.0 °F - 73.2 °F 88% 29.96 in 7.0 mi Calm Calm - N/A   Clear
2:55 AM 76.1 °F - 72.5 °F 89% 29.96 in 7.0 mi Calm Calm - N/A   Clear
3:15 AM 75.7 °F - 72.7 °F 90% 29.96 in 7.0 mi Calm Calm - N/A   Clear
3:35 AM 76.3 °F - 73.4 °F 91% 29.96 in 4.0 mi Calm Calm - N/A   Clear
3:55 AM 76.5 °F - 73.4 °F 90% 29.97 in 7.0 mi Calm Calm - N/A   Clear
4:15 AM 77.0 °F - 73.8 °F 90% 29.96 in 7.0 mi Calm Calm - N/A   Clear
4:35 AM 74.8 °F - 71.6 °F 90% 29.97 in 2.0 mi Calm Calm - N/A   Clear
4:55 AM 74.5 °F - 71.4 °F 90% 29.97 in 2.0 mi Calm Calm - N/A   Clear
5:15 AM 73.6 °F - 70.3 °F 90% 29.97 in 1.0 mi Calm Calm - N/A   Mist
5:35 AM 73.4 °F - 70.0 °F 89% 29.98 in 4.0 mi Calm Calm - N/A   Clear
5:50 AM 73.4 °F - 69.8 °F 88% 29.99 in 5.0 mi Calm Calm - N/A   Partly Cloudy
5:55 AM 73.8 °F - 70.5 °F 90% 29.99 in 0.5 mi Calm Calm - N/A Fog Fog
6:50 AM 75.2 °F - 73.4 °F 94% 30.01 in 5.0 mi Calm Calm - N/A   Scattered Clouds
7:47 AM 80.6 °F 86.2 °F 75.2 °F 84% 30.02 in 7.0 mi Calm Calm - N/A   Scattered Clouds
8:47 AM 86.0 °F 95.1 °F 75.2 °F 70% 30.04 in 7.0 mi Calm Calm - N/A   Scattered Clouds
9:50 AM 87.8 °F 93.8 °F 71.6 °F 58% 30.04 in 7.0 mi WNW 4.6 mph - N/A   Scattered Clouds
10:50 AM 91.4 °F 98.4 °F 71.6 °F 52% 30.04 in 7.0 mi WNW 4.6 mph - N/A   Scattered Clouds
11:50 AM 93.2 °F 96.2 °F 66.2 °F 41% 30.03 in 7.0 mi SSW 4.6 mph - N/A   Scattered Clouds
1:50 PM 82.4 °F 87.2 °F 71.6 °F 70% 30.01 in 7.0 mi South 9.2 mph - N/A   Scattered Clouds
2:50 PM 91.4 °F 100.1 °F 73.4 °F 55% 30.00 in 7.0 mi SSW 9.2 mph - N/A   Scattered Clouds
3:50 PM 91.4 °F 100.1 °F 73.4 °F 55% 29.97 in 7.0 mi SSW 9.2 mph - N/A   Scattered Clouds
4:50 PM 91.4 °F 98.4 °F 71.6 °F 52% 29.97 in 7.0 mi SW 8.1 mph - N/A   Scattered Clouds
5:50 PM 91.4 °F 96.8 °F 69.8 °F 49% 29.95 in 7.0 mi SW 6.9 mph - N/A   Scattered Clouds
6:50 PM 91.4 °F 96.8 °F 69.8 °F 49% 29.94 in 7.0 mi WSW 4.6 mph - N/A   Scattered Clouds
7:15 PM 88.7 °F 93.5 °F 69.6 °F 53% 29.94 in 7.0 mi Calm Calm - N/A   Clear
7:35 PM 86.9 °F 92.1 °F 70.7 °F 58% 29.95 in 10.0 mi Calm Calm - N/A   Clear
7:55 PM 85.1 °F 90.8 °F 71.6 °F 64% 29.95 in 10.0 mi Calm Calm - N/A   Clear
8:15 PM 84.2 °F 90.3 °F 72.5 °F 68% 29.95 in 10.0 mi Calm Calm - N/A   Clear
8:35 PM 83.5 °F 89.7 °F 73.0 °F 71% 29.96 in 10.0 mi Calm Calm - N/A   Clear
8:55 PM 83.1 °F 89.2 °F 73.4 °F 72% 29.97 in 7.0 mi Calm Calm - N/A   Clear
9:15 PM 81.1 °F 86.4 °F 73.6 °F 78% 29.97 in 4.0 mi Calm Calm - N/A   Haze
9:35 PM 81.5 °F 86.7 °F 73.4 °F 76% 29.99 in 7.0 mi Calm Calm - N/A   Clear
9:55 PM 81.5 °F 86.9 °F 73.6 °F 77% 30.00 in 10.0 mi Calm Calm - N/A   Clear
10:15 PM 81.3 °F 86.5 °F 73.6 °F 77% 30.01 in 10.0 mi Calm Calm - N/A   Clear
10:55 PM 79.3 °F - 73.8 °F 83% 30.01 in 10.0 mi Calm Calm - N/A   Clear
11:15 PM 79.7 °F - 74.1 °F 83% 30.01 in 10.0 mi Calm Calm - N/A   Clear
11:35 PM 78.8 °F - 73.6 °F 84% 30.01 in 7.0 mi Calm Calm - N/A   Clear
11:55 PM 78.8 °F - 73.8 °F 84% 30.01 in 7.0 mi Calm Calm - N/A   Clear